Location: Caltech
(34.1382°N, 118.1253°W)
Time: 19:41:17
(UTC-08:00)

Cosmos 1697 Rocket - Visible Passes

Search period start: 12 December 2017 00:00
Search period end: 22 December 2017 00:00
Orbit: 833 x 843 km, 71.0° (Epoch: 12 December)

Date Brightness Start Highest point End Pass type
(mag) Time Alt. Az. Time Alt. Az. Time Alt. Az.
12 Dec 5.1 03:32:38 15° NE 03:33:30 15° NE 03:36:39 10° E visible
12 Dec 2.6 05:14:26 23° NNW 05:17:58 68° WSW 05:23:31 10° S visible
12 Dec 2.8 18:15:08 10° S 18:20:37 54° ESE 18:22:51 34° NE visible
12 Dec 5.0 20:01:01 10° W 20:04:39 19° WNW 20:04:39 19° WNW visible
13 Dec 5.3 03:17:47 14° ENE 03:17:47 14° ENE 03:20:07 10° E visible
13 Dec 2.5 04:59:34 37° NNW 05:01:50 74° WSW 05:07:24 10° SSE visible
13 Dec 2.9 17:59:03 10° S 18:04:28 50° ESE 18:07:58 21° NE visible
13 Dec 4.8 19:44:37 10° WSW 19:48:41 20° WNW 19:49:46 19° NW visible
14 Dec 5.5 03:02:58 11° ENE 03:02:58 11° ENE 03:03:31 10° E visible
14 Dec 2.5 04:44:46 63° NW 04:45:41 80° WSW 04:51:16 10° SSE visible
14 Dec 3.0 17:42:59 10° S 17:48:21 46° ESE 17:53:01 13° NE visible
14 Dec 4.8 19:28:14 10° WSW 19:32:30 22° WNW 19:34:48 17° NNW visible
15 Dec 2.6 04:30:01 75° S 04:30:01 75° S 04:35:08 10° SSE visible
15 Dec 3.1 17:26:56 10° S 17:32:13 42° ESE 17:37:30 10° NE visible
15 Dec 4.7 19:11:53 10° WSW 19:16:17 23° WNW 19:19:45 14° NNW visible
16 Dec 3.5 04:15:18 43° SSE 04:15:18 43° SSE 04:18:59 10° SSE visible
16 Dec 3.3 17:10:54 10° S 17:16:05 39° ESE 17:21:16 10° NE visible
16 Dec 4.6 18:55:32 10° WSW 19:00:06 25° WNW 19:04:38 10° N visible
17 Dec 4.4 04:00:35 25° SSE 04:00:35 25° SSE 04:02:50 10° SSE visible
17 Dec 4.5 18:39:12 10° WSW 18:43:55 27° WNW 18:48:39 10° N visible
18 Dec 5.0 03:45:52 14° SSE 03:45:52 14° SSE 03:46:40 10° SSE visible
18 Dec 4.4 18:22:53 10° WSW 18:27:44 29° WNW 18:32:36 10° N visible
19 Dec 4.3 18:06:36 10° WSW 18:11:32 31° WNW 18:16:32 10° N visible
20 Dec 4.2 17:50:18 10° SW 17:55:22 33° WNW 18:00:27 10° N visible
21 Dec 4.1 17:34:02 10° SW 17:39:11 36° WNW 17:44:23 10° N visible
